Location: Newark
(17.9939°S, 31.0481°E)
Time: 18:55:16
(UTC+00:00)

Courier 1B Rocket - Visible Passes

Search period start: 22 November 2019 00:00
Search period end: 02 December 2019 00:00
Orbit: 920 x 1202 km, 28.2° (Epoch: 21 November)

Date Brightness Start Highest point End Pass type
(mag) Time Alt. Az. Time Alt. Az. Time Alt. Az.
22 Nov 6.0 00:10:43 42° S 00:10:43 42° S 00:16:23 10° ESE visible
22 Nov 6.4 01:58:10 10° WSW 02:04:22 34° S 02:10:12 10° ESE visible
22 Nov 7.1 23:13:11 22° SE 23:13:11 22° SE 23:15:25 10° ESE visible
23 Nov 6.3 00:59:32 23° SW 01:02:56 35° S 01:09:00 10° ESE visible
24 Nov 6.2 00:02:00 38° S 00:02:00 38° S 00:07:52 10° ESE visible
24 Nov 6.3 01:49:36 10° WSW 01:56:02 37° S 02:02:03 10° ESE visible
24 Nov 7.2 23:04:31 21° SE 23:04:31 21° SE 23:06:48 10° ESE visible
25 Nov 6.4 00:50:52 22° SW 00:54:35 35° S 01:00:44 10° ESE visible
25 Nov 5.9 02:42:15 10° WSW 02:48:57 52° SSE 02:55:13 10° E visible
25 Nov 7.0 18:05:04 10° NNW 18:06:52 15° N 18:06:52 15° N visible
25 Nov 6.4 23:53:26 36° S 23:53:26 36° S 23:59:28 10° ESE visible
26 Nov 6.1 01:40:54 10° WSW 01:47:38 43° SSE 01:53:55 10° E visible
26 Nov 6.8 17:05:44 10° N 17:09:36 14° NNE 17:10:48 14° NE visible
26 Nov 7.2 18:55:45 10° NW 18:57:16 17° NW 18:57:16 17° NW visible
26 Nov 7.3 22:56:05 20° SE 22:56:05 20° SE 22:58:16 10° ESE visible
27 Nov 6.3 00:42:27 23° SW 00:46:13 39° S 00:52:33 10° ESE visible
27 Nov 5.4 02:33:26 10° WSW 02:40:26 69° SSE 02:46:55 10° ENE visible
27 Nov 6.0 17:55:08 10° NNW 18:01:21 33° NNE 18:01:21 33° NNE visible
27 Nov 7.7 19:47:47 10° WNW 19:47:50 10° WNW 19:47:50 10° WNW visible
27 Nov 6.4 23:45:12 37° S 23:45:12 37° S 23:51:11 10° ESE visible
28 Nov 5.8 01:32:06 10° WSW 01:39:11 54° SSE 01:45:44 10° E visible
28 Nov 6.5 16:55:01 10° NNW 17:00:45 23° NNE 17:05:33 13° ENE visible
28 Nov 5.9 18:46:36 10° NW 18:52:02 48° NW 18:52:02 48° NW visible
28 Nov 7.4 22:48:05 17° SE 22:48:05 17° SE 22:49:50 10° ESE visible
29 Nov 6.1 00:34:28 29° SW 00:37:47 45° SSE 00:44:24 10° E visible
29 Nov 5.1 02:24:38 10° WSW 02:31:49 87° NNW 02:38:26 10° ENE visible
29 Nov 5.6 17:45:42 10° NW 17:53:03 49° NNE 17:56:16 33° E visible
29 Nov 6.7 19:39:07 10° WNW 19:42:44 30° W 19:42:44 30° W visible
29 Nov 6.4 23:37:34 37° SSE 23:37:34 37° SSE 23:42:59 10° ESE visible
30 Nov 5.4 01:23:59 13° WSW 01:30:37 71° SSE 01:37:24 10° ENE visible
30 Nov 6.0 16:45:11 10° NNW 16:51:50 34° NNE 16:58:43 10° E visible
30 Nov 5.3 18:37:44 10° WNW 18:45:31 88° SSW 18:46:55 64° ESE visible
30 Nov 7.6 20:32:22 10° W 20:33:24 14° W 20:33:24 14° W visible
30 Nov 7.7 22:40:54 13° ESE 22:40:54 13° ESE 22:41:31 10° ESE visible
01 Dec 5.7 00:27:19 44° SSW 00:29:17 56° SSE 00:36:11 10° E visible
01 Dec 5.2 02:15:57 10° WSW 02:23:05 61° NNW 02:29:40 10° NE visible
01 Dec 5.3 17:36:37 10° NW 17:44:11 70° NNE 17:50:58 15° ESE visible
01 Dec 6.0 19:30:40 10° W 19:37:25 52° SW 19:37:25 52° SW visible
01 Dec 6.7 23:30:55 31° ESE 23:30:55 31° ESE 23:34:47 10° E visible
